Location: Seasalter
(51.3333°N, 1.0167°E)
Time: 10:55:08
(UTC+00:00)

Cosmos 1553 Rocket - Pass Details

Date: 26 September 2023
Orbit: 942 x 1006 km, 82.9° (Epoch: 28 November)

Event Time Altitude Azimuth Distance (km) Brightness Sun altitude
Rises 02:26:27 0° 350° (N) 3,631 7.4 -29.7°
Reaches altitude 10° 02:28:57 10° 353° (N) 2,687 6.7 -29.4°
Maximum altitude 02:35:06 73° 78° (ENE) 1,007 4.1 -28.7°
Enters shadow 02:37:11 43° 150° (SSE) 1,318 4.5 -28.4°
